Location: Automata Internet Observatory
(34.5060°N, 117.9090°W)
Time: 09:59:37
(UTC-08:00)

ISS - Visible Passes

Search period start: 24 February 2018 00:00
Search period end: 06 March 2018 00:00
Orbit: 402 x 407 km, 51.6° (Epoch: 25 February)

Date Brightness Start Highest point End Pass type
(mag) Time Alt. Az. Time Alt. Az. Time Alt. Az.
24 Feb -0.7 05:12:26 10° SSE 05:13:59 13° SE 05:15:32 10° E visible
25 Feb -3.7 05:54:39 10° SW 05:57:54 82° SE 06:01:09 10° NE visible
26 Feb -2.3 05:03:23 15° SSW 05:05:43 35° SE 05:08:44 10° ENE visible
27 Feb -1.0 04:14:04 16° ESE 04:14:04 16° ESE 04:15:48 10° E visible
27 Feb -3.1 05:46:50 10° WSW 05:49:52 35° NW 05:52:55 10° NNE visible
28 Feb -4.0 04:57:13 65° W 04:57:33 75° NW 05:00:50 10° NE visible
01 Mar -1.0 04:07:28 18° ENE 04:07:28 18° ENE 04:08:28 10° ENE visible
01 Mar -1.9 05:40:08 12° WNW 05:41:58 17° NNW 05:44:11 10° NNE visible
02 Mar -2.3 04:50:14 26° N 04:50:14 26° N 04:52:23 10° NNE visible
03 Mar -0.5 04:00:11 11° NE 04:00:11 11° NE 04:00:20 10° NE visible
04 Mar -1.2 04:42:42 12° N 04:42:42 12° N 04:43:26 10° N visible
